Location: Bannatyne
(13.0833°N, 59.5333°W)
Time: 01:09:44
(UTC+00:00)

Transit 4A - Pass Details

Date: 17 January 2021
Orbit: 866 x 978 km, 66.8° (Epoch: 03 March)

Event Time Altitude Azimuth Distance (km) Brightness Sun altitude
Rises 01:01:38 0° 245° (WSW) 3,635 11.7 -44.9°
Reaches altitude 10° 01:05:58 10° 273° (W) 2,706 10.8 -45.9°
Enters shadow 01:07:56 12° 291° (WNW) 2,539 10.5 -46.4°
